Location: Albuquerque Trailhead
(34.7934°N, 106.3736°W)
Time: 03:14:44
(UTC+00:00)

FALCON 9 DEB - Pass Details

Date: 20 June 2021
Orbit: 422 x 432 km, 53.0° (Epoch: 29 July)

Event Time Altitude Azimuth Distance (km) Brightness Sun altitude
Rises 02:45:50 0° 236° (WSW) 2,391 7.2 -5.0°
Reaches altitude 10° 02:48:00 10° 242° (WSW) 1,526 6.3 -5.4°
Maximum altitude 02:51:19 48° 318° (NW) 572 4.3 -6.0°
Drops below altitude 10° 02:54:39 10° 35° (NE) 1,528 5.9 -6.5°
Sets 02:56:49 0° 41° (NE) 2,395 6.8 -6.9°
